Time,TemperatureF,DewpointF,PressureIn,WindDirection,WindDirectionDegrees,WindSpeedMPH,WindSpeedGustMPH,Humidity,HourlyPrecipIn,Conditions,Clouds,dailyrainin,SoftwareType,DateUTC
2013-04-28 00:03:00,48.0,-99.9,30.32,South,191,1.0,2.0,72,0.00,,,0.00,,2013-04-28 04:03:00,
2013-04-28 00:13:00,48.0,39.0,30.32,South,191,1.0,2.0,72,0.00,,,0.00,,2013-04-28 04:13:00,
2013-04-28 00:23:00,48.0,38.0,30.32,SSE,150,0.0,0.0,69,0.00,,,0.00,,2013-04-28 04:23:00,
2013-04-28 00:32:00,48.0,38.0,30.32,SSE,163,0.0,0.0,69,0.00,,,0.00,,2013-04-28 04:32:00,
2013-04-28 00:43:00,48.0,38.0,30.32,SSE,163,0.0,0.0,69,0.00,,,0.00,,2013-04-28 04:43:00,
2013-04-28 00:53:00,48.0,38.0,30.32,SSE,165,2.0,4.0,68,0.00,,,0.00,,2013-04-28 04:53:00,
2013-04-28 01:02:00,48.0,38.0,30.32,South,189,2.0,3.0,68,0.00,,,0.00,,2013-04-28 05:02:00,
2013-04-28 01:12:00,48.0,38.0,30.32,South,189,2.0,3.0,68,0.00,,,0.00,,2013-04-28 05:12:00,
2013-04-28 01:22:00,47.0,37.0,30.32,SSW,204,2.0,3.0,69,0.00,,,0.00,,2013-04-28 05:22:00,
2013-04-28 01:32:00,47.0,38.0,30.32,South,170,2.0,3.0,70,0.00,,,0.00,,2013-04-28 05:32:00,
2013-04-28 01:42:00,47.0,38.0,30.32,South,170,2.0,3.0,70,0.00,,,0.00,,2013-04-28 05:42:00,
2013-04-28 01:52:00,47.0,38.0,30.31,South,184,2.0,3.0,71,0.00,,,0.00,,2013-04-28 05:52:00,
2013-04-28 02:01:00,47.0,38.0,30.31,South,172,1.0,3.0,72,0.00,,,0.00,,2013-04-28 06:01:00,
2013-04-28 02:12:00,47.0,38.0,30.31,South,172,1.0,3.0,72,0.00,,,0.00,,2013-04-28 06:12:00,
2013-04-28 02:21:00,47.0,38.0,30.30,South,186,2.0,4.0,71,0.00,,,0.00,,2013-04-28 06:21:00,
2013-04-28 02:32:00,46.0,37.0,30.30,SSW,192,2.0,3.0,72,0.00,,,0.00,,2013-04-28 06:32:00,
2013-04-28 02:42:00,46.0,37.0,30.30,SSW,192,2.0,3.0,72,0.00,,,0.00,,2013-04-28 06:42:00,
2013-04-28 02:52:00,46.0,38.0,30.30,South,186,2.0,3.0,73,0.00,,,0.00,,2013-04-28 06:52:00,
2013-04-28 03:01:00,46.0,39.0,30.30,SSE,149,2.0,2.0,75,0.00,,,0.00,,2013-04-28 07:01:00,
2013-04-28 03:11:00,46.0,39.0,30.30,SSE,149,2.0,2.0,75,0.00,,,0.00,,2013-04-28 07:11:00,
2013-04-28 03:21:00,46.0,39.0,30.29,South,172,2.0,3.0,75,0.00,,,0.00,,2013-04-28 07:21:00,
2013-04-28 03:32:00,46.0,39.0,30.29,SSE,165,2.0,3.0,75,0.00,,,0.00,,2013-04-28 07:32:00,
2013-04-28 03:42:00,46.0,39.0,30.29,SSE,165,2.0,3.0,75,0.00,,,0.00,,2013-04-28 07:42:00,
2013-04-28 03:52:00,46.0,37.0,30.29,SE,146,2.0,3.0,72,0.00,,,0.00,,2013-04-28 07:52:00,
2013-04-28 04:02:00,47.0,38.0,30.30,SSE,155,2.0,4.0,70,0.00,,,0.00,,2013-04-28 08:02:00,
2013-04-28 04:11:00,47.0,38.0,30.30,SSE,155,2.0,4.0,70,0.00,,,0.00,,2013-04-28 08:11:00,
2013-04-28 04:21:00,46.0,37.0,30.29,South,169,2.0,3.0,71,0.00,,,0.00,,2013-04-28 08:21:00,
2013-04-28 04:32:00,46.0,37.0,30.29,South,170,2.0,4.0,72,0.00,,,0.00,,2013-04-28 08:32:00,
2013-04-28 04:42:00,46.0,37.0,30.29,South,170,2.0,4.0,72,0.00,,,0.00,,2013-04-28 08:42:00,
2013-04-28 04:52:00,46.0,37.0,30.29,SE,145,2.0,4.0,72,0.00,,,0.00,,2013-04-28 08:52:00,
2013-04-28 05:01:00,46.0,37.0,30.29,SSE,153,2.0,4.0,72,0.00,,,0.00,,2013-04-28 09:01:00,
2013-04-28 05:12:00,46.0,37.0,30.29,SSE,153,2.0,4.0,72,0.00,,,0.00,,2013-04-28 09:12:00,
2013-04-28 05:22:00,46.0,38.0,30.29,SSE,150,2.0,4.0,73,0.00,,,0.00,,2013-04-28 09:22:00,
2013-04-28 05:33:00,46.0,38.0,30.29,SSE,153,2.0,4.0,73,0.00,,,0.00,,2013-04-28 09:33:00,
2013-04-28 05:42:00,46.0,38.0,30.29,SSE,153,2.0,4.0,73,0.00,,,0.00,,2013-04-28 09:42:00,
2013-04-28 05:53:00,46.0,37.0,30.29,SE,133,1.0,3.0,72,0.00,,,0.00,,2013-04-28 09:53:00,
2013-04-28 06:03:00,44.0,37.0,30.29,SE,146,0.0,1.0,76,0.00,,,0.00,,2013-04-28 10:03:00,
2013-04-28 06:12:00,44.0,37.0,30.29,SE,146,0.0,1.0,76,0.00,,,0.00,,2013-04-28 10:12:00,
2013-04-28 06:23:00,43.0,36.0,30.29,SSE,148,0.0,0.0,77,0.00,,,0.00,,2013-04-28 10:23:00,
2013-04-28 06:32:00,42.0,36.0,30.29,SSE,148,0.0,0.0,80,0.00,,,0.00,,2013-04-28 10:32:00,
2013-04-28 06:42:00,42.0,36.0,30.29,SSE,148,0.0,0.0,80,0.00,,,0.00,,2013-04-28 10:42:00,
2013-04-28 06:53:00,41.0,36.0,30.30,SSE,148,0.0,0.0,83,0.00,,,0.00,,2013-04-28 10:53:00,
2013-04-28 07:02:00,44.0,38.0,30.30,SW,229,0.0,1.0,79,0.00,,,0.00,,2013-04-28 11:02:00,
2013-04-28 07:11:00,44.0,38.0,30.30,SW,229,0.0,1.0,79,0.00,,,0.00,,2013-04-28 11:11:00,
2013-04-28 07:22:00,43.0,37.0,30.30,SW,229,0.0,1.0,80,0.00,,,0.00,,2013-04-28 11:22:00,
2013-04-28 07:32:00,45.0,39.0,30.31,SW,229,0.0,1.0,79,0.00,,,0.00,,2013-04-28 11:32:00,
2013-04-28 07:42:00,45.0,39.0,30.31,SW,229,0.0,1.0,79,0.00,,,0.00,,2013-04-28 11:42:00,
2013-04-28 07:52:00,46.0,39.0,30.31,SW,229,0.0,1.0,76,0.00,,,0.00,,2013-04-28 11:52:00,
2013-04-28 08:02:00,48.0,39.0,30.31,SW,229,0.0,0.0,72,0.00,,,0.00,,2013-04-28 12:02:00,
2013-04-28 08:12:00,48.0,39.0,30.31,SW,229,0.0,0.0,72,0.00,,,0.00,,2013-04-28 12:12:00,
2013-04-28 08:22:00,50.0,40.0,30.32,South,180,0.0,1.0,69,0.00,,,0.00,,2013-04-28 12:22:00,
2013-04-28 08:32:00,51.0,40.0,30.32,NW,319,2.0,2.0,66,0.00,,,0.00,,2013-04-28 12:32:00,
2013-04-28 08:42:00,51.0,40.0,30.32,NW,319,2.0,2.0,66,0.00,,,0.00,,2013-04-28 12:42:00,
2013-04-28 08:52:00,53.0,41.0,30.33,NW,304,0.0,1.0,64,0.00,,,0.00,,2013-04-28 12:52:00,
2013-04-28 09:02:00,54.0,40.0,30.33,SE,134,2.0,4.0,59,0.00,,,0.00,,2013-04-28 13:02:00,
2013-04-28 09:11:00,54.0,40.0,30.33,SE,134,2.0,4.0,59,0.00,,,0.00,,2013-04-28 13:11:00,
2013-04-28 09:21:00,56.0,41.0,30.33,SSW,207,1.0,2.0,56,0.00,,,0.00,,2013-04-28 13:21:00,
2013-04-28 09:32:00,57.0,43.0,30.33,South,170,0.0,2.0,59,0.00,,,0.00,,2013-04-28 13:32:00,
2013-04-28 09:42:00,57.0,43.0,30.33,South,170,0.0,2.0,59,0.00,,,0.00,,2013-04-28 13:42:00,
2013-04-28 09:52:00,58.0,43.0,30.33,SSE,150,2.0,3.0,57,0.00,,,0.00,,2013-04-28 13:52:00,
2013-04-28 10:02:00,59.0,39.0,30.33,SE,138,2.0,4.0,47,0.00,,,0.00,,2013-04-28 14:02:00,
2013-04-28 10:11:00,59.0,39.0,30.33,SE,138,2.0,4.0,47,0.00,,,0.00,,2013-04-28 14:11:00,
2013-04-28 10:22:00,60.0,40.0,30.34,South,173,2.0,4.0,47,0.00,,,0.00,,2013-04-28 14:22:00,
2013-04-28 10:32:00,61.0,38.0,30.34,East,99,1.0,7.0,42,0.00,,,0.00,,2013-04-28 14:32:00,
2013-04-28 10:42:00,61.0,38.0,30.34,East,99,1.0,7.0,42,0.00,,,0.00,,2013-04-28 14:42:00,
2013-04-28 10:52:00,62.0,36.0,30.33,SW,214,5.0,8.0,38,0.00,,,0.00,,2013-04-28 14:52:00,
2013-04-28 11:02:00,63.0,35.0,30.33,SSW,201,5.0,9.0,35,0.00,,,0.00,,2013-04-28 15:02:00,
2013-04-28 11:12:00,63.0,35.0,30.33,SSW,201,5.0,9.0,35,0.00,,,0.00,,2013-04-28 15:12:00,
2013-04-28 11:21:00,64.0,35.0,30.32,ESE,112,2.0,8.0,34,0.00,,,0.00,,2013-04-28 15:21:00,
2013-04-28 11:32:00,63.0,36.0,30.32,West,260,3.0,8.0,36,0.00,,,0.00,,2013-04-28 15:32:00,
2013-04-28 11:42:00,63.0,36.0,30.32,West,260,3.0,8.0,36,0.00,,,0.00,,2013-04-28 15:42:00,
2013-04-28 11:53:00,65.0,35.0,30.32,SSE,160,3.0,11.0,33,0.00,,,0.00,,2013-04-28 15:53:00,
2013-04-28 12:03:00,65.0,34.0,30.31,South,181,4.0,7.0,31,0.00,,,0.00,,2013-04-28 16:03:00,
2013-04-28 12:13:00,65.0,34.0,30.31,South,181,4.0,7.0,31,0.00,,,0.00,,2013-04-28 16:13:00,
2013-04-28 12:23:00,65.0,34.0,30.31,SE,133,5.0,8.0,31,0.00,,,0.00,,2013-04-28 16:23:00,
2013-04-28 12:33:00,65.0,34.0,30.30,ESE,108,3.0,7.0,31,0.00,,,0.00,,2013-04-28 16:33:00,
2013-04-28 12:42:00,65.0,34.0,30.30,ESE,108,3.0,7.0,31,0.00,,,0.00,,2013-04-28 16:42:00,
2013-04-28 12:52:00,65.0,35.0,30.30,WSW,242,3.0,9.0,33,0.00,,,0.00,,2013-04-28 16:52:00,
2013-04-28 13:02:00,65.0,36.0,30.29,SE,145,3.0,9.0,34,0.00,,,0.00,,2013-04-28 17:02:00,
2013-04-28 13:12:00,65.0,36.0,30.29,SE,145,3.0,9.0,34,0.00,,,0.00,,2013-04-28 17:12:00,
2013-04-28 13:22:00,67.0,36.0,30.29,West,269,3.0,7.0,32,0.00,,,0.00,,2013-04-28 17:22:00,
2013-04-28 13:32:00,66.0,34.0,30.29,WNW,302,3.0,8.0,31,0.00,,,0.00,,2013-04-28 17:32:00,
2013-04-28 13:42:00,66.0,34.0,30.29,WNW,302,3.0,8.0,31,0.00,,,0.00,,2013-04-28 17:42:00,
2013-04-28 13:52:00,67.0,35.0,30.28,SSW,211,3.0,7.0,30,0.00,,,0.00,,2013-04-28 17:52:00,
2013-04-28 14:02:00,66.0,35.0,30.28,SW,222,6.0,13.0,32,0.00,,,0.00,,2013-04-28 18:02:00,
2013-04-28 14:12:00,66.0,35.0,30.28,SW,222,6.0,13.0,32,0.00,,,0.00,,2013-04-28 18:12:00,
2013-04-28 14:22:00,65.0,34.0,30.27,SSE,153,7.0,12.0,32,0.00,,,0.00,,2013-04-28 18:22:00,
2013-04-28 14:32:00,66.0,35.0,30.27,SE,145,2.0,9.0,32,0.00,,,0.00,,2013-04-28 18:32:00,
2013-04-28 14:42:00,66.0,35.0,30.27,SE,145,2.0,9.0,32,0.00,,,0.00,,2013-04-28 18:42:00,
2013-04-28 14:52:00,66.0,34.0,30.27,SSE,155,4.0,7.0,30,0.00,,,0.00,,2013-04-28 18:52:00,
2013-04-28 15:02:00,66.0,34.0,30.27,ESE,105,3.0,9.0,31,0.00,,,0.00,,2013-04-28 19:02:00,
2013-04-28 15:11:00,66.0,34.0,30.27,ESE,105,3.0,9.0,31,0.00,,,0.00,,2013-04-28 19:11:00,
2013-04-28 15:22:00,66.0,35.0,30.26,SSE,162,2.0,6.0,32,0.00,,,0.00,,2013-04-28 19:22:00,
2013-04-28 15:32:00,65.0,35.0,30.26,ESE,108,3.0,7.0,33,0.00,,,0.00,,2013-04-28 19:32:00,
2013-04-28 15:42:00,65.0,35.0,30.26,ESE,108,3.0,7.0,33,0.00,,,0.00,,2013-04-28 19:42:00,
2013-04-28 15:52:00,65.0,35.0,30.25,ENE,70,3.0,9.0,33,0.00,,,0.00,,2013-04-28 19:52:00,
2013-04-28 16:02:00,65.0,36.0,30.24,North,360,2.0,7.0,34,0.00,,,0.00,,2013-04-28 20:02:00,
2013-04-28 16:12:00,65.0,36.0,30.24,North,360,2.0,7.0,34,0.00,,,0.00,,2013-04-28 20:12:00,
2013-04-28 16:22:00,65.0,37.0,30.24,SW,219,4.0,9.0,35,0.00,,,0.00,,2013-04-28 20:22:00,
2013-04-28 16:32:00,63.0,36.0,30.24,SE,131,4.0,10.0,37,0.00,,,0.00,,2013-04-28 20:32:00,
2013-04-28 16:42:00,63.0,36.0,30.24,SE,131,4.0,10.0,37,0.00,,,0.00,,2013-04-28 20:42:00,
2013-04-28 16:52:00,63.0,36.0,30.23,SSE,163,4.0,10.0,37,0.00,,,0.00,,2013-04-28 20:52:00,
2013-04-28 17:01:00,64.0,37.0,30.23,SE,133,3.0,7.0,37,0.00,,,0.00,,2013-04-28 21:01:00,
2013-04-28 17:11:00,64.0,37.0,30.23,SE,133,3.0,7.0,37,0.00,,,0.00,,2013-04-28 21:11:00,
2013-04-28 17:22:00,63.0,37.0,30.23,East,101,4.0,10.0,38,0.00,,,0.00,,2013-04-28 21:22:00,
2013-04-28 17:33:00,63.0,37.0,30.23,NW,314,2.0,5.0,38,0.00,,,0.00,,2013-04-28 21:33:00,
2013-04-28 17:42:00,63.0,37.0,30.23,NW,314,2.0,5.0,38,0.00,,,0.00,,2013-04-28 21:42:00,
2013-04-28 17:53:00,63.0,38.0,30.23,SE,125,2.0,8.0,39,0.00,,,0.00,,2013-04-28 21:53:00,
2013-04-28 18:03:00,62.0,37.0,30.24,SSE,147,3.0,9.0,40,0.00,,,0.00,,2013-04-28 22:03:00,
2013-04-28 18:13:00,62.0,37.0,30.24,SSE,147,3.0,9.0,40,0.00,,,0.00,,2013-04-28 22:13:00,
2013-04-28 18:23:00,62.0,37.0,30.23,SW,228,3.0,7.0,40,0.00,,,0.00,,2013-04-28 22:23:00,
2013-04-28 18:33:00,61.0,36.0,30.23,SSE,153,4.0,10.0,39,0.00,,,0.00,,2013-04-28 22:33:00,
2013-04-28 18:42:00,61.0,36.0,30.23,SSE,153,4.0,10.0,39,0.00,,,0.00,,2013-04-28 22:42:00,
2013-04-28 18:52:00,60.0,36.0,30.23,East,82,2.0,8.0,40,0.00,,,0.00,,2013-04-28 22:52:00,
2013-04-28 19:02:00,59.0,37.0,30.23,SE,133,1.0,5.0,43,0.00,,,0.00,,2013-04-28 23:02:00,
2013-04-28 19:12:00,59.0,37.0,30.23,SE,133,1.0,5.0,43,0.00,,,0.00,,2013-04-28 23:12:00,
2013-04-28 19:22:00,58.0,37.0,30.23,ESE,122,2.0,11.0,45,0.00,,,0.00,,2013-04-28 23:22:00,
2013-04-28 19:32:00,57.0,38.0,30.23,NNW,332,3.0,7.0,49,0.00,,,0.00,,2013-04-28 23:32:00,
2013-04-28 19:42:00,57.0,38.0,30.23,NNW,332,3.0,7.0,49,0.00,,,0.00,,2013-04-28 23:42:00,
2013-04-28 19:52:00,56.0,40.0,30.22,South,177,1.0,5.0,55,0.00,,,0.00,,2013-04-28 23:52:00,
2013-04-28 20:01:00,55.0,41.0,30.22,WNW,293,0.0,7.0,58,0.00,,,0.00,,2013-04-29 00:01:00,
2013-04-28 20:11:00,55.0,41.0,30.22,WNW,293,0.0,7.0,58,0.00,,,0.00,,2013-04-29 00:11:00,
2013-04-28 20:22:00,54.0,41.0,30.22,SSW,212,1.0,5.0,61,0.00,,,0.00,,2013-04-29 00:22:00,
2013-04-28 20:32:00,54.0,41.0,30.22,SSW,201,0.0,4.0,62,0.00,,,0.00,,2013-04-29 00:32:00,
2013-04-28 20:42:00,54.0,41.0,30.22,SSW,201,0.0,4.0,62,0.00,,,0.00,,2013-04-29 00:42:00,
2013-04-28 20:52:00,53.0,41.0,30.22,SSE,162,2.0,5.0,63,0.00,,,0.00,,2013-04-29 00:52:00,
2013-04-28 21:01:00,53.0,40.0,30.22,SSE,153,1.0,7.0,61,0.00,,,0.00,,2013-04-29 01:01:00,
2013-04-28 21:12:00,53.0,40.0,30.22,SSW,197,2.0,6.0,61,0.00,,,0.00,,2013-04-29 01:12:00,
2013-04-28 21:22:00,53.0,40.0,30.22,SSW,197,2.0,6.0,61,0.00,,,0.00,,2013-04-29 01:22:00,
2013-04-28 21:32:00,53.0,39.0,30.23,SSW,207,3.0,5.0,60,0.00,,,0.00,,2013-04-29 01:32:00,
2013-04-28 21:42:00,53.0,39.0,30.23,SSW,207,3.0,5.0,60,0.00,,,0.00,,2013-04-29 01:42:00,
2013-04-28 21:52:00,53.0,39.0,30.24,SE,145,3.0,5.0,59,0.00,,,0.00,,2013-04-29 01:52:00,
2013-04-28 22:02:00,53.0,39.0,30.24,SSW,205,2.0,5.0,60,0.00,,,0.00,,2013-04-29 02:02:00,
2013-04-28 22:11:00,53.0,39.0,30.24,SSW,205,2.0,5.0,60,0.00,,,0.00,,2013-04-29 02:11:00,
2013-04-28 22:22:00,52.0,39.0,30.24,SSW,194,2.0,5.0,60,0.00,,,0.00,,2013-04-29 02:22:00,
2013-04-28 22:32:00,52.0,39.0,30.24,SSE,165,2.0,4.0,61,0.00,,,0.00,,2013-04-29 02:32:00,
2013-04-28 22:42:00,52.0,39.0,30.24,SSE,165,2.0,4.0,61,0.00,,,0.00,,2013-04-29 02:42:00,
2013-04-28 22:52:00,52.0,39.0,30.24,SE,143,2.0,5.0,60,0.00,,,0.00,,2013-04-29 02:52:00,
2013-04-28 23:01:00,52.0,38.0,30.24,SSE,147,4.0,6.0,59,0.00,,,0.00,,2013-04-29 03:01:00,
2013-04-28 23:12:00,52.0,38.0,30.24,SSE,147,4.0,6.0,59,0.00,,,0.00,,2013-04-29 03:12:00,
2013-04-28 23:21:00,52.0,37.0,30.24,SSW,200,2.0,6.0,57,0.00,,,0.00,,2013-04-29 03:21:00,
2013-04-28 23:33:00,51.0,36.0,30.24,South,169,2.0,5.0,56,0.00,,,0.00,,2013-04-29 03:33:00,
2013-04-28 23:42:00,51.0,36.0,30.24,South,169,2.0,5.0,56,0.00,,,0.00,,2013-04-29 03:42:00,
2013-04-28 23:53:00,51.0,36.0,30.24,SSE,157,2.0,4.0,57,0.00,,,0.00,,2013-04-29 03:53:00,